Weather History for Toronto, ON

Change the Weather History Date:

Thursday, November 13, 2014

  Actual Average Record
Temperature  
Mean Temperature 32 °F -  
Max Temperature 35 °F 41 °F 55 °F (2005)
Min Temperature 28 °F 30 °F 24 °F (1996)
Degree Days  
Heating Degree Days 32    
Moisture  
Dew Point 28 °F    
Average Humidity 79    
Maximum Humidity 87    
Minimum Humidity 52    
Precipitation  
Precipitation 0.00 in 0.09 in - ()
Sea Level Pressure  
Sea Level Pressure 30.09 in    
Wind  
Wind Speed 13 mph ()    
Max Wind Speed 20 mph    
Max Gust Speed 26 mph    
Visibility 7.0 miles    
Events Rain , Snow    
Averages and records for this station are not official NWS values.
T = Trace of Precipitation, MM = Missing Value Source: Averaged Metar Reports

Daily Weather History Graph

Daily Weather History Graph

Search for Another Location

Airport:

Trip Planner

Search our weather history database for the weather conditions in past years. The results will help you decide how hot, cold, wet, or windy it might be!

Date:

Astronomy

Nov. 13, 2014 Rise Set
Actual Time 7:08 AM EST 4:54 PM EST
Civil Twilight 6:38 AM EST 5:25 PM EST
Nautical Twilight 6:03 AM EST 5:59 PM EST
Astronomical Twilight 5:29 AM EST 6:33 PM EST
Moon 11:12 PM EST (11/13) 12:26 PM EST (11/13)
Length of Visible Light 10h 46m
Length of Day
9h 45m
Waning Gibbous, 59% of the Moon is Illuminated
Nov 13
Waning Gibbous
Nov 14
Last Quarter
Nov 22
New
Nov 29
First Quarter
Dec 6
Full

Hourly Weather History & Observations

Time (EST) Temp. Windchill Dew Point Humidity Pressure Visibility Wind Dir Wind Speed Gust Speed Precip Events Conditions
12:00 AM 35.6 °F 25.5 °F 23.0 °F 60% 30.13 in 9.0 mi WSW 17.3 mph - N/A   Scattered Clouds
1:00 AM 35 °F - 24 °F 52% 30.13 in 10 mi WSW 17.3 mph - -  
1:00 AM 35.6 °F 25.2 °F 24.8 °F 65% 30.13 in 9.0 mi WSW 18.4 mph - N/A   Mostly Cloudy
2:00 AM 35.6 °F 24.8 °F 24.8 °F 65% 30.13 in 9.0 mi WSW 19.6 mph 25.3 mph N/A   Overcast
3:00 AM 35.6 °F 24.8 °F 24.8 °F 65% 30.14 in 9.0 mi WSW 19.6 mph - N/A   Mostly Cloudy
4:00 AM 35.6 °F 25.2 °F 24.8 °F 65% 30.13 in 9.0 mi WSW 18.4 mph - N/A   Overcast
5:00 AM 35.6 °F 25.2 °F 26.6 °F 70% 30.13 in 9.0 mi WSW 18.4 mph 26.5 mph N/A   Overcast
6:00 AM 33.8 °F 23.5 °F 26.6 °F 75% 30.13 in 9.0 mi WSW 16.1 mph 21.9 mph N/A   Mostly Cloudy
7:00 AM 34 °F - 27 °F 67% 30.13 in 10 mi WSW 13.8 mph - -   Overcast
7:00 AM 33.8 °F 24.3 °F 26.6 °F 75% 30.13 in 9.0 mi West 13.8 mph - N/A   Overcast
8:00 AM 33.8 °F 24.8 °F 26.6 °F 75% 30.13 in 9.0 mi WSW 12.7 mph - N/A   Overcast
9:00 AM 35.6 °F 26.2 °F 26.6 °F 70% 30.12 in 9.0 mi West 15.0 mph - N/A   Overcast
9:34 AM 35.6 °F 27.1 °F 26.6 °F 70% 30.12 in 9.0 mi West 12.7 mph - N/A Rain Light Rain
9:52 AM 33.8 °F 24.3 °F 26.6 °F 75% 30.12 in 9.0 mi WNW 13.8 mph 19.6 mph N/A Rain , Snow Light Rain
9:58 AM 33.8 °F 23.9 °F 26.6 °F 75% 30.12 in 9.0 mi West 15.0 mph 20.7 mph N/A Snow Light Snow
10:00 AM 33.8 °F 23.9 °F 28.4 °F 81% 30.12 in 9.0 mi West 15.0 mph 20.7 mph N/A Snow Light Snow
10:31 AM 33.8 °F 24.3 °F 28.4 °F 81% 30.13 in 5.0 mi West 13.8 mph - N/A Snow Light Snow
10:44 AM 33.8 °F 25.3 °F 28.4 °F 81% 30.12 in 2.5 mi West 11.5 mph - N/A Snow Light Snow
11:00 AM 33.8 °F 24.3 °F 28.4 °F 81% 30.12 in 2.0 mi WSW 13.8 mph - N/A Snow Light Snow
11:09 AM 33.8 °F 24.8 °F 30.2 °F 87% 30.12 in 2.2 mi West 12.7 mph - N/A Snow Light Snow
11:12 AM 33.8 °F 25.3 °F 30.2 °F 87% 30.12 in 2.5 mi West 11.5 mph - N/A Snow Light Snow
11:18 AM 33.8 °F 25.3 °F 30.2 °F 87% 30.11 in 2.5 mi WSW 11.5 mph - N/A Snow Light Snow
11:22 AM 33.8 °F 24.8 °F 30.2 °F 87% 30.11 in 3.0 mi WSW 12.7 mph - N/A Snow Light Snow
11:33 AM 33.8 °F 25.3 °F 30.2 °F 87% 30.11 in 2.5 mi SW 11.5 mph - N/A Snow Light Snow
11:40 AM 33.8 °F 25.3 °F 30.2 °F 87% 30.11 in 3.0 mi WSW 11.5 mph - N/A Snow Light Snow
12:00 PM 33.8 °F 24.8 °F 30.2 °F 87% 30.10 in 3.0 mi SW 12.7 mph - N/A Snow Light Snow
12:23 PM 33.8 °F 25.3 °F 30.2 °F 87% 30.09 in 5.0 mi WSW 11.5 mph - N/A Snow Light Snow
12:24 PM 33.8 °F 25.3 °F 30.2 °F 87% 30.09 in 6.0 mi WSW 11.5 mph - N/A Snow Light Snow
12:35 PM 33.8 °F 25.3 °F 30.2 °F 87% 30.08 in 9.0 mi WSW 11.5 mph - N/A Snow Light Snow
12:37 PM 33.8 °F 24.8 °F 30.2 °F 87% 30.07 in 9.0 mi WSW 12.7 mph - N/A Snow Light Snow
12:38 PM 33.8 °F 24.8 °F 30.2 °F 87% 30.07 in 9.0 mi WSW 12.7 mph - N/A Snow Light Snow
12:39 PM 33.8 °F 25.3 °F 30.2 °F 87% 30.07 in 9.0 mi WSW 11.5 mph - N/A Snow Light Snow
12:49 PM 33.8 °F 24.8 °F 30.2 °F 87% 30.07 in 5.0 mi WSW 12.7 mph - N/A Snow Light Snow
1:00 PM 34 °F - 30 °F 79% 30.07 in 5 mi WSW 12.7 mph - - Snow Light Snow
1:00 PM 33.8 °F 25.3 °F 30.2 °F 87% 30.07 in 5.0 mi WSW 11.5 mph - N/A Snow Light Snow
1:06 PM 33.8 °F 24.8 °F 30.2 °F 87% 30.07 in 5.0 mi WSW 12.7 mph - N/A Snow Light Snow
1:14 PM 33.8 °F 25.3 °F 30.2 °F 87% 30.07 in 6.0 mi WSW 11.5 mph - N/A Snow Light Snow
1:39 PM 35.6 °F 27.1 °F 30.2 °F 81% 30.06 in 9.0 mi West 12.7 mph - N/A   Overcast
1:42 PM 35.6 °F 26.6 °F 30.2 °F 81% 30.06 in 9.0 mi West 13.8 mph - N/A   Overcast
1:44 PM 35.6 °F 27.5 °F 28.4 °F 75% 30.06 in 9.0 mi West 11.5 mph - N/A   Overcast
1:49 PM 35.6 °F 27.5 °F 28.4 °F 75% 30.06 in 9.0 mi WSW 11.5 mph - N/A Rain Light Rain
1:51 PM 35.6 °F 27.1 °F 28.4 °F 75% 30.06 in 9.0 mi West 12.7 mph - N/A Rain Light Rain
1:52 PM 35.6 °F 27.1 °F 28.4 °F 75% 30.06 in 9.0 mi West 12.7 mph - N/A Rain Light Rain
1:53 PM 35.6 °F 27.5 °F 28.4 °F 75% 30.06 in 9.0 mi West 11.5 mph - N/A Rain Light Rain
2:00 PM 35.6 °F 27.1 °F 28.4 °F 75% 30.06 in 9.0 mi West 12.7 mph 19.6 mph N/A Rain Light Rain
2:21 PM 35.6 °F 27.5 °F 30.2 °F 81% 30.06 in 9.0 mi West 11.5 mph 17.3 mph N/A Rain Light Rain
2:25 PM 35.6 °F 27.5 °F 30.2 °F 81% 30.06 in 9.0 mi WNW 11.5 mph 17.3 mph N/A Rain Light Rain
2:26 PM 35.6 °F 26.6 °F 30.2 °F 81% 30.06 in 9.0 mi WNW 13.8 mph - N/A Rain Light Rain
2:39 PM 33.8 °F 24.8 °F 30.2 °F 87% 30.06 in 6.0 mi NW 12.7 mph - N/A Rain , Snow Light Rain
2:40 PM 33.8 °F 25.3 °F 28.4 °F 81% 30.06 in 4.0 mi NW 11.5 mph - N/A Rain , Snow Light Rain
2:41 PM 33.8 °F 25.8 °F 28.4 °F 81% 30.06 in 4.0 mi NW 10.4 mph - N/A Rain , Snow Light Rain
2:45 PM 33.8 °F 24.8 °F 28.4 °F 81% 30.06 in 3.0 mi NW 12.7 mph - N/A Snow Light Snow
2:47 PM 33.8 °F 23.9 °F 28.4 °F 81% 30.06 in 3.0 mi NW 15.0 mph - N/A Snow Light Snow
2:49 PM 33.8 °F 24.8 °F 28.4 °F 81% 30.06 in 2.5 mi NW 12.7 mph - N/A Snow Light Snow
2:55 PM 32.0 °F 23.6 °F 28.4 °F 87% 30.06 in 2.2 mi NW 10.4 mph 17.3 mph N/A Snow Light Snow
2:56 PM 32.0 °F 23.0 °F 28.4 °F 87% 30.06 in 2.2 mi NW 11.5 mph 17.3 mph N/A Snow Light Snow
3:00 PM 33.8 °F 27.7 °F 28.4 °F 81% 30.06 in 2.5 mi NW 6.9 mph - N/A Snow Light Snow
3:02 PM 33.8 °F 25.3 °F 28.4 °F 81% 30.06 in 3.0 mi WNW 11.5 mph 17.3 mph N/A Snow Light Snow
3:09 PM 33.8 °F 26.4 °F 28.4 °F 81% 30.06 in 6.0 mi WNW 9.2 mph 17.3 mph N/A Snow Light Snow
3:21 PM 33.8 °F 25.3 °F 28.4 °F 81% 30.06 in 9.0 mi West 11.5 mph - N/A   Overcast
3:58 PM 33.8 °F 24.8 °F 28.4 °F 81% 30.06 in 9.0 mi West 12.7 mph 18.4 mph N/A   Overcast
4:00 PM 33.8 °F 24.3 °F 26.6 °F 75% 30.06 in 9.0 mi West 13.8 mph - N/A   Overcast
4:10 PM 33.8 °F 23.9 °F 26.6 °F 75% 30.06 in 9.0 mi West 15.0 mph - N/A   Overcast
4:16 PM 33.8 °F 24.3 °F 28.4 °F 81% 30.06 in 9.0 mi West 13.8 mph - N/A Rain Light Rain
4:21 PM 33.8 °F 23.2 °F 28.4 °F 81% 30.06 in 9.0 mi West 17.3 mph - N/A Rain , Snow Light Rain
4:27 PM 33.8 °F 25.3 °F 28.4 °F 81% 30.07 in 6.0 mi West 11.5 mph 20.7 mph N/A Snow Light Snow
4:52 PM 33.8 °F 25.3 °F 26.6 °F 75% 30.06 in 9.0 mi West 11.5 mph - N/A   Overcast
5:00 PM 33.8 °F 25.3 °F 26.6 °F 75% 30.06 in 9.0 mi West 11.5 mph - N/A   Overcast
6:00 PM 33.8 °F 23.9 °F 24.8 °F 70% 30.07 in 9.0 mi West 15.0 mph - N/A   Mostly Cloudy
7:00 PM 32 °F - 26 °F 68% 30.08 in 10 mi West 13.8 mph - -  
7:00 PM 32.0 °F 21.6 °F 24.8 °F 75% 30.08 in 9.0 mi West 15.0 mph - N/A   Clear
8:00 PM 30.2 °F 20.2 °F 24.8 °F 80% 30.09 in 9.0 mi West 12.7 mph - N/A   Clear
9:00 PM 30.2 °F 19.3 °F 24.8 °F 80% 30.09 in 9.0 mi West 15.0 mph 20.7 mph N/A   Clear
10:00 PM 30.2 °F 20.2 °F 24.8 °F 80% 30.08 in 9.0 mi West 12.7 mph - N/A   Clear
11:00 PM 28.4 °F 19.1 °F 23.0 °F 80% 30.08 in 9.0 mi West 10.4 mph - N/A   Clear